Location: La Oliva
(42.2466°N, 2.9955°E)
Time: 11:13:03
(UTC+00:00)

COSMOS 2428 - Pass Details

Date: 22 April 2021
Orbit: 844 x 859 km, 70.9° (Epoch: 10 May)

Event Time Altitude Azimuth Distance (km) Brightness Sun altitude
Rises 19:50:37 0° 330° (NNW) 3,441 7.0 -13.1°
Reaches altitude 10° 19:53:10 10° 324° (NW) 2,501 6.3 -13.5°
Maximum altitude 19:58:37 46° 253° (WSW) 1,137 3.7 -14.4°
Drops below altitude 10° 20:04:03 10° 181° (S) 2,483 4.8 -15.2°
Enters shadow 20:05:18 - 178° (S) 2,937 5.2 -15.4°
